Temp
-17 -16 -16 -15 -15 -15 -15 -14 -14 -14 -14 -14 -14 -14 -13 -13 -13 -12 -12 -12 -12 -12 -12 -11 -11 -11 -11 -11 -11 -11 -11 -11 -10 -9 -9 -9 -9 -8 -8 -8 -8 -8 -8 -8 -8
-17 -17 -16 -16 -16 -16 -16 -16 -14 -14 -14 -14 -14 -14 -13 -13 -13 -13 -12 -12 -12 -12 -12 -12 -12 -12 -11 -12 -11 -11 -11 -11 -10 -9 -9 -10 -10 -9 -8 -8 -8 -7 -8 -8 -8
-17 -17 -17 -17 -17 -17 -16 -16 -16 -14 -14 -15 -15 -14 -13 -13 -13 -13 -12 -12 -12 -12 -12 -12 -12 -12 -11 -12 -11 -11 -11 -11 -10 -9 -10 -10 -9 -9 -8 -8 -8 -8 -8 -8 -8
-18 -17 -17 -17 -17 -18 -17 -17 -16 -15 -15 -16 -15 -14 -15 -13 -13 -12 -12 -13 -12 -12 -12 -12 -12 -12 -12 -11 -11 -11 -11 -11 -11 -10 -10 -11 -9 -10 -8 -8 -8 -9 -8 -8 -8
-18 -18 -18 -18 -18 -17 -18 -17 -17 -16 -16 -15 -15 -15 -14 -14 -13 -12 -12 -13 -13 -12 -13 -12 -12 -12 -12 -12 -11 -11 -11 -11 -11 -11 -10 -10 -10 -10 -9 -8 -8 -8 -9 -8 -9
-18 -18 -18 -18 -18 -17 -18 -18 -18 -18 -17 -16 -16 -15 -14 -14 -14 -13 -12 -13 -13 -12 -12 -12 -13 -12 -11 -12 -11 -11 -11 -11 -11 -11 -11 -10 -10 -9 -9 -9 -9 -9 -8 -8 -9
-18 -18 -18 -18 -18 -18 -17 -17 -17 -19 -18 -17 -16 -16 -14 -15 -14 -14 -14 -13 -13 -13 -13 -13 -13 -12 -12 -12 -12 -11 -11 -12 -11 -11 -11 -10 -10 -9 -10 -10 -8 -9 -9 -9 -9
-19 -18 -18 -18 -18 -18 -18 -18 -18 -18 -18 -19 -17 -17 -15 -16 -15 -14 -14 -14 -13 -14 -13 -13 -13 -13 -13 -12 -12 -12 -12 -11 -12 -11 -11 -11 -9 -10 -10 -10 -9 -9 -9 -9 -9
-19 -19 -19 -18 -18 -18 -18 -18 -18 -18 -19 -18 -18 -17 -17 -16 -15 -16 -15 -15 -14 -14 -14 -13 -13 -13 -13 -12 -12 -12 -11 -12 -12 -12 -11 -11 -9 -10 -10 -9 -9 -9 -9 -10 -9
-20 -19 -19 -19 -18 -18 -18 -18 -18 -18 -18 -19 -18 -17 -15 -16 -16 -16 -15 -15 -14 -14 -14 -14 -14 -13 -13 -13 -12 -12 -12 -12 -12 -12 -12 -10 -9 -10 -10 -10 -9 -9 -10 -10 -9
-21 -20 -19 -19 -19 -18 -19 -18 -18 -18 -18 -18 -16 -16 -15 -15 -16 -17 -17 -16 -16 -16 -14 -14 -14 -13 -13 -13 -13 -13 -13 -12 -12 -12 -12 -11 -9 -10 -10 -10 -10 -9 -10 -10 -10
-23 -21 -20 -20 -20 -19 -19 -18 -18 -18 -17 -18 -17 -17 -16 -16 -17 -17 -17 -17 -16 -16 -16 -16 -13 -14 -14 -14 -13 -13 -13 -13 -13 -12 -12 -11 -10 -9 -10 -10 -10 -10 -10 -10 -11
-24 -23 -21 -21 -21 -19 -19 -19 -19 -19 -18 -18 -18 -18 -17 -17 -17 -17 -17 -18 -18 -16 -16 -16 -15 -15 -15 -15 -14 -14 -14 -14 -13 -13 -12 -11 -10 -9 -10 -10 -10 -10 -10 -10 -10
-25 -23 -23 -21 -20 -20 -19 -19 -19 -19 -19 -18 -18 -17 -17 -17 -17 -17 -18 -18 -17 -17 -17 -17 -15 -15 -14 -14 -15 -15 -14 -14 -14 -13 -12 -12 -9 -9 -9 -10 -10 -10 -10 -11 -11
-25 -25 -23 -22 -22 -21 -21 -20 -20 -21 -21 -20 -18 -18 -18 -17 -17 -17 -18 -17 -18 -17 -17 -16 -16 -15 -14 -14 -14 -14 -14 -14 -14 -14 -13 -12 -11 -8 -10 -10 -10 -10 -11 -11 -11
-26 -26 -24 -22 -22 -21 -22 -21 -22 -22 -22 -21 -19 -18 -18 -17 -17 -17 -18 -18 -18 -18 -17 -17 -16 -16 -15 -15 -14 -14 -14 -15 -15 -15 -13 -13 -12 -9 -10 -10 -11 -10 -10 -11 -11
-26 -27 -26 -25 -23 -22 -22 -22 -23 -23 -22 -20 -19 -18 -18 -18 -18 -18 -18 -17 -17 -17 -17 -17 -16 -16 -16 -15 -15 -15 -15 -15 -15 -15 -13 -13 -13 -10 -10 -11 -11 -11 -11 -11 -11
-27 -27 -27 -26 -24 -22 -22 -24 -24 -22 -21 -20 -19 -19 -19 -19 -19 -19 -19 -18 -17 -17 -17 -17 -16 -16 -16 -16 -15 -15 -16 -16 -16 -15 -15 -15 -13 -11 -11 -12 -11 -11 -12 -12 -12
-27 -27 -27 -27 -26 -25 -25 -25 -24 -24 -22 -21 -21 -21 -20 -20 -19 -19 -18 -17 -17 -17 -17 -17 -17 -16 -16 -16 -16 -16 -16 -16 -17 -16 -16 -15 -13 -12 -12 -12 -13 -12 -12 -12 -12
-26 -26 -26 -26 -26 -26 -26 -26 -24 -24 -23 -22 -22 -22 -21 -20 -20 -20 -18 -17 -17 -17 -17 -17 -17 -18 -18 -17 -17 -17 -17 -18 -17 -17 -17 -15 -14 -13 -12 -13 -13 -13 -13 -13 -12
-26 -26 -26 -26 -26 -26 -26 -25 -25 -24 -24 -23 -23 -22 -22 -21 -21 -20 -19 -18 -18 -18 -18 -18 -17 -17 -18 -17 -18 -18 -18 -18 -18 -18 -17 -16 -15 -14 -13 -13 -14 -14 -13 -13 -13
-26 -26 -26 -26 -26 -26 -26 -25 -25 -25 -25 -24 -23 -23 -22 -22 -22 -22 -21 -19 -19 -19 -19 -19 -19 -19 -18 -18 -19 -19 -19 -19 -19 -17 -18 -18 -16 -14 -14 -14 -15 -15 -15 -15 -15
-26 -26 -26 -26 -26 -26 -26 -26 -26 -26 -25 -25 -24 -23 -22 -21 -22 -22 -21 -21 -21 -21 -20 -20 -21 -20 -19 -19 -18 -19 -18 -19 -19 -20 -19 -19 -15 -15 -16 -15 -16 -16 -16 -16 -16
-26 -26 -26 -26 -26 -27 -27 -27 -26 -26 -26 -26 -24 -24 -23 -22 -22 -22 -22 -22 -22 -22 -22 -22 -22 -21 -19 -19 -21 -21 -21 -21 -21 -21 -20 -20 -15 -15 -16 -16 -16 -17 -17 -16 -16
-26 -27 -26 -26 -26 -27 -27 -27 -26 -26 -25 -25 -25 -23 -23 -22 -22 -22 -22 -22 -22 -22 -22 -22 -21 -21 -20 -22 -22 -21 -21 -21 -21 -20 -20 -19 -19 -14 -16 -16 -17 -17 -16 -17 -17
-27 -27 -27 -27 -27 -27 -26 -26 -26 -26 -26 -25 -26 -25 -23 -23 -22 -22 -22 -22 -22 -21 -22 -22 -22 -22 -21 -21 -22 -22 -22 -22 -21 -20 -20 -19 -19 -16 -18 -18 -18 -18 -18 -19 -19
-26 -26 -27 -27 -27 -26 -26 -26 -26 -26 -26 -25 -26 -25 -24 -23 -24 -22 -22 -22 -22 -22 -22 -22 -22 -22 -22 -22 -23 -23 -21 -21 -22 -21 -21 -21 -19 -19 -18 -18 -18 -18 -20 -20 -19
Height
5673 5681 5688 5696 5703 5711 5717 5723 5731 5739 5746 5751 5760 5767 5775 5782 5790 5797 5804 5810 5817 5821 5826 5831 5837 5841 5845 5848 5852 5854 5858 5856 5856 5859 5865 5866 5867 5869 5871 5873 5874 5875 5876 5878 5878
5661 5669 5677 5685 5693 5699 5707 5712 5720 5729 5737 5744 5751 5759 5768 5775 5782 5789 5796 5804 5810 5815 5821 5825 5831 5834 5840 5843 5847 5850 5853 5851 5854 5859 5863 5863 5865 5865 5867 5869 5870 5872 5874 5875 5876
5649 5657 5665 5674 5682 5689 5696 5703 5710 5718 5726 5734 5742 5750 5758 5768 5775 5782 5787 5796 5803 5809 5815 5819 5824 5829 5834 5838 5841 5845 5846 5847 5851 5855 5858 5859 5861 5861 5862 5865 5868 5869 5870 5872 5873
5637 5645 5654 5663 5671 5678 5686 5694 5702 5707 5716 5722 5732 5742 5751 5759 5766 5775 5781 5789 5797 5803 5808 5813 5818 5823 5827 5833 5835 5840 5840 5842 5847 5848 5852 5854 5856 5857 5858 5861 5865 5865 5866 5869 5870
5624 5633 5642 5651 5660 5668 5676 5684 5692 5698 5706 5712 5719 5730 5742 5751 5758 5765 5773 5780 5788 5795 5801 5805 5810 5815 5821 5825 5827 5833 5835 5835 5843 5845 5846 5849 5852 5852 5854 5857 5859 5862 5863 5865 5866
5612 5621 5631 5640 5649 5657 5666 5674 5681 5689 5694 5703 5711 5719 5731 5742 5748 5756 5766 5774 5779 5786 5792 5797 5803 5805 5812 5817 5820 5828 5829 5830 5838 5840 5841 5844 5845 5846 5853 5852 5854 5856 5858 5860 5861
5600 5610 5620 5629 5639 5647 5655 5663 5673 5679 5686 5693 5702 5710 5720 5735 5740 5748 5756 5764 5771 5777 5784 5789 5793 5799 5805 5810 5812 5818 5824 5823 5826 5832 5833 5836 5839 5844 5846 5845 5848 5851 5853 5855 5856
5588 5598 5609 5619 5628 5638 5646 5653 5661 5669 5677 5684 5692 5701 5711 5720 5729 5738 5747 5753 5762 5768 5774 5779 5787 5791 5795 5800 5805 5808 5814 5816 5819 5824 5827 5828 5834 5840 5839 5838 5842 5844 5847 5849 5851
5576 5586 5598 5608 5618 5627 5636 5644 5651 5660 5667 5675 5684 5692 5702 5712 5721 5727 5735 5740 5748 5757 5764 5769 5775 5780 5784 5789 5796 5798 5802 5808 5811 5816 5818 5820 5825 5833 5832 5832 5835 5837 5840 5842 5845
5564 5574 5586 5597 5608 5617 5625 5634 5642 5650 5657 5664 5673 5683 5691 5706 5710 5718 5725 5731 5738 5745 5752 5758 5763 5768 5774 5777 5784 5791 5797 5802 5803 5811 5807 5809 5815 5822 5824 5824 5828 5831 5834 5836 5838
5553 5563 5574 5585 5597 5606 5616 5623 5632 5641 5650 5658 5666 5673 5679 5697 5702 5709 5714 5721 5727 5734 5741 5747 5752 5758 5768 5772 5777 5781 5783 5788 5793 5796 5797 5801 5805 5813 5818 5818 5821 5825 5827 5829 5830
5541 5552 5562 5573 5585 5595 5605 5613 5624 5632 5641 5648 5656 5663 5670 5682 5693 5699 5705 5712 5719 5727 5732 5738 5743 5753 5758 5760 5765 5769 5772 5777 5782 5784 5787 5789 5794 5803 5807 5811 5814 5815 5817 5820 5821
5530 5540 5552 5562 5571 5584 5596 5607 5615 5622 5629 5638 5644 5653 5661 5670 5681 5691 5696 5702 5710 5716 5723 5729 5736 5741 5746 5750 5753 5759 5763 5767 5769 5771 5775 5776 5781 5791 5801 5801 5802 5806 5810 5812 5815
5520 5530 5540 5550 5565 5574 5588 5597 5608 5614 5618 5626 5631 5639 5649 5658 5670 5679 5687 5693 5700 5708 5713 5717 5727 5732 5735 5741 5745 5749 5755 5757 5759 5758 5762 5763 5764 5779 5789 5791 5792 5797 5801 5804 5805
5513 5519 5530 5544 5553 5564 5582 5588 5598 5604 5601 5612 5621 5629 5640 5651 5662 5672 5676 5682 5690 5698 5703 5712 5720 5722 5728 5736 5737 5740 5743 5745 5747 5748 5748 5755 5753 5767 5776 5780 5785 5791 5791 5791 5795
5507 5513 5520 5532 5544 5556 5568 5578 5587 5589 5587 5602 5612 5622 5632 5642 5649 5659 5666 5672 5679 5685 5693 5700 5706 5710 5719 5722 5725 5728 5733 5734 5734 5736 5736 5746 5744 5750 5764 5773 5775 5776 5781 5783 5786
5502 5508 5515 5522 5531 5546 5558 5566 5570 5570 5584 5594 5606 5617 5624 5630 5636 5647 5657 5662 5670 5678 5686 5692 5698 5706 5710 5712 5716 5719 5721 5721 5722 5724 5728 5736 5738 5744 5754 5760 5763 5766 5767 5769 5771
5499 5505 5512 5518 5525 5535 5546 5554 5555 5565 5578 5589 5597 5606 5611 5618 5625 5635 5644 5652 5663 5668 5675 5680 5686 5693 5701 5705 5710 5711 5712 5711 5713 5714 5718 5722 5724 5734 5737 5746 5748 5753 5754 5756 5758
5495 5502 5509 5516 5523 5529 5537 5542 5550 5558 5572 5583 5589 5594 5603 5609 5618 5625 5634 5646 5654 5662 5667 5672 5675 5682 5689 5694 5696 5698 5697 5705 5703 5702 5701 5704 5716 5723 5727 5732 5737 5739 5740 5740 5743
5492 5499 5506 5512 5518 5525 5531 5533 5547 5554 5563 5574 5580 5588 5595 5603 5609 5615 5623 5637 5644 5651 5654 5658 5664 5668 5673 5678 5681 5682 5689 5688 5687 5688 5690 5697 5703 5712 5719 5719 5719 5724 5725 5727 5727
5489 5496 5503 5508 5513 5518 5524 5532 5539 5547 5554 5563 5569 5578 5583 5592 5601 5607 5614 5626 5635 5644 5645 5647 5652 5658 5661 5665 5671 5673 5675 5677 5678 5678 5681 5686 5689 5701 5707 5707 5705 5706 5708 5710 5711
5488 5495 5500 5504 5510 5515 5522 5528 5536 5539 5547 5555 5562 5571 5579 5586 5592 5598 5606 5618 5627 5632 5634 5641 5641 5645 5651 5655 5657 5657 5659 5661 5662 5667 5666 5668 5675 5692 5694 5692 5690 5693 5694 5693 5693
5487 5492 5495 5501 5506 5512 5518 5525 5531 5538 5543 5548 5555 5565 5577 5579 5583 5589 5600 5610 5614 5619 5626 5630 5629 5632 5636 5641 5641 5643 5649 5651 5654 5653 5653 5654 5665 5687 5678 5676 5679 5677 5677 5677 5678
5484 5488 5493 5498 5503 5509 5513 5518 5524 5529 5531 5537 5551 5555 5565 5570 5576 5582 5589 5599 5601 5609 5615 5618 5619 5621 5625 5634 5633 5633 5637 5639 5639 5638 5644 5640 5655 5670 5666 5666 5665 5661 5663 5662 5660
5482 5485 5491 5495 5500 5504 5507 5512 5517 5522 5525 5529 5536 5546 5556 5564 5568 5575 5583 5589 5593 5597 5602 5605 5608 5613 5618 5619 5619 5621 5623 5625 5627 5631 5625 5636 5633 5654 5653 5649 5642 5645 5649 5645 5642
5483 5484 5488 5492 5494 5496 5500 5507 5511 5514 5519 5526 5532 5544 5545 5556 5565 5568 5576 5581 5585 5590 5592 5596 5600 5603 5606 5611 5610 5607 5608 5611 5613 5615 5612 5618 5618 5640 5636 5634 5630 5634 5630 5626 5625
5483 5483 5484 5486 5487 5490 5495 5499 5503 5507 5513 5518 5522 5525 5533 5549 5555 5566 5567 5573 5578 5581 5585 5587 5591 5592 5593 5600 5593 5591 5602 5603 5598 5601 5603 5598 5611 5617 5619 5620 5619 5617 5607 5605 5608
Wind_Speed
67 65 65 67 67 63 62 56 58 76 73 58 55 53 50 48 47 46 46 43 41 41 40 39 37 36 35 34 32 30 29 31 31 26 22 20 18 17 16 16 15 14 13 11 12
63 63 68 62 62 64 60 64 56 60 78 69 64 57 56 54 52 49 48 45 44 43 41 40 39 40 39 37 35 33 32 34 32 25 21 20 19 21 19 17 15 13 13 13 13
63 63 60 69 66 64 61 61 62 57 71 71 65 65 61 59 55 53 51 48 46 44 42 41 39 39 38 36 36 34 34 35 32 28 24 25 23 23 21 18 14 12 15 14 14
64 62 61 64 62 67 60 63 62 62 53 61 58 67 65 60 59 56 53 50 49 47 44 42 41 40 39 37 38 35 36 37 33 34 29 29 26 25 24 19 14 15 16 15 16
65 64 62 61 67 60 61 56 56 58 51 56 62 61 69 65 63 61 57 53 51 50 47 46 44 44 41 40 42 39 39 41 36 36 36 33 29 30 26 21 18 19 19 19 19
63 65 65 63 61 65 64 60 54 54 55 54 57 59 68 69 66 64 59 55 52 53 50 48 46 49 47 44 45 41 43 43 40 40 41 37 35 34 26 26 24 22 21 23 22
64 63 64 65 62 59 58 56 56 59 57 56 52 57 63 56 68 68 63 60 57 55 54 51 51 50 49 47 49 47 45 47 48 44 45 44 41 34 32 32 29 25 26 24 23
65 64 63 64 63 61 58 55 55 60 55 58 54 53 58 53 59 65 64 66 61 59 57 56 54 52 52 53 52 53 51 51 50 48 46 48 43 37 37 36 32 29 27 27 25
67 66 64 63 62 61 60 56 56 59 54 57 58 57 54 56 58 51 55 59 63 62 61 59 58 58 57 58 56 57 56 53 52 49 50 50 46 41 42 40 36 35 31 29 26
65 67 65 64 62 61 61 60 57 59 59 60 59 59 58 52 57 55 49 56 58 61 62 61 62 62 61 62 61 57 55 53 53 49 53 54 51 46 45 45 40 36 33 32 29
61 64 66 65 64 63 61 61 61 61 58 57 59 58 62 56 53 59 56 51 52 54 56 60 62 64 61 59 58 57 58 57 55 54 54 55 55 50 45 46 44 37 36 35 34
53 62 65 65 63 65 62 61 60 59 59 56 56 60 60 54 52 54 62 54 50 50 49 52 59 56 57 59 59 58 58 57 56 57 56 56 58 54 50 47 46 43 41 39 40
49 54 62 63 62 65 63 62 58 58 59 58 58 58 57 53 52 49 52 55 51 52 51 49 50 49 51 55 54 53 53 55 57 59 58 59 60 58 51 52 52 48 44 43 41
44 50 52 63 63 63 63 61 60 57 58 60 61 60 59 57 51 52 51 54 58 52 52 57 52 50 52 53 54 53 51 53 55 58 59 58 64 59 55 54 55 52 50 47 46
42 46 50 50 57 57 56 58 57 53 56 62 60 60 57 56 55 51 53 57 56 60 55 56 50 52 49 47 50 52 51 52 53 56 58 58 63 63 58 57 56 52 52 53 51
34 36 45 51 50 53 53 56 54 54 57 56 60 59 57 56 56 53 54 52 54 59 60 55 58 57 53 52 52 55 53 51 52 55 61 57 61 67 60 54 53 57 56 55 53
27 30 28 38 45 49 50 53 57 57 61 61 61 61 55 53 56 53 50 55 55 54 58 56 55 52 56 54 54 55 57 56 55 56 61 57 58 64 57 55 54 54 56 55 55
28 25 20 21 29 41 50 53 56 62 62 64 62 60 59 55 48 48 48 50 52 54 53 58 64 57 49 55 55 53 53 54 53 55 56 55 61 59 59 54 56 54 54 53 53
32 28 23 23 19 30 53 59 50 50 58 59 62 60 53 58 59 52 53 52 49 47 49 50 52 57 57 53 53 53 57 51 50 54 59 61 61 62 58 55 51 53 54 56 57
33 30 24 26 26 24 49 58 61 42 52 56 61 52 57 53 51 48 48 49 50 50 50 51 52 53 53 52 53 55 51 49 54 59 58 64 63 57 55 56 57 57 58 58 60
33 32 28 27 27 27 22 44 60 66 57 53 59 65 55 56 54 51 59 57 52 47 49 52 52 53 55 58 54 54 55 54 55 59 63 65 63 64 60 58 60 59 58 60 63
27 30 29 25 30 26 22 16 41 58 59 60 52 53 49 52 50 38 40 49 43 39 49 51 53 52 52 51 51 53 56 55 58 60 58 60 65 63 59 61 59 60 61 63 63
21 21 24 29 28 28 27 27 26 37 63 68 55 55 36 41 48 56 57 49 45 40 41 41 46 50 52 53 54 53 54 53 56 53 53 57 62 48 60 69 68 67 66 65 65
22 23 26 28 28 25 24 29 31 30 34 54 54 51 45 40 40 41 40 44 52 48 41 39 44 50 54 51 45 49 49 48 49 53 55 60 63 55 58 59 60 61 61 62 62
15 20 22 24 24 27 28 30 31 31 27 57 65 49 60 38 31 34 35 44 46 54 50 48 49 46 47 44 46 49 48 48 50 51 55 53 57 58 54 57 58 57 57 59 61
24 20 18 24 28 31 36 35 35 35 33 24 63 69 51 60 43 23 31 31 34 35 39 45 51 50 51 47 43 50 47 49 50 52 58 60 63 57 56 57 59 58 58 60 61
15 19 26 30 34 36 36 37 34 37 35 30 30 66 71 50 44 27 31 30 34 32 35 38 40 45 48 46 49 54 51 50 55 56 57 59 59 51 56 56 57 59 60 61 63
Wind_Direction
227 229 230 231 232 234 240 238 230 224 225 227 220 224 221 217 217 217 219 216 211 212 213 211 211 212 213 216 217 222 224 229 228 207 209 215 216 221 228 236 241 234 239 233 225
230 231 228 231 232 233 233 241 240 230 225 229 222 216 222 224 219 219 219 220 215 215 215 216 215 216 218 218 222 223 225 228 230 219 212 227 230 234 233 230 234 232 227 230 227
230 231 233 228 231 232 233 238 243 234 225 225 224 218 217 225 222 219 219 221 220 220 218 220 220 220 219 221 223 224 228 230 230 224 226 231 229 241 231 228 224 231 230 229 234
227 229 232 229 230 230 236 237 240 235 234 218 228 221 221 220 225 220 221 222 224 223 223 223 224 226 224 222 227 226 229 231 232 237 231 235 238 236 232 228 217 231 239 239 240
226 226 228 231 226 231 231 234 237 238 233 235 222 226 220 223 224 222 221 222 224 226 225 225 226 227 227 228 228 227 232 236 232 240 243 242 241 237 230 229 231 226 236 244 241
225 226 226 228 230 231 230 231 231 239 239 236 235 218 223 222 224 225 223 223 224 227 227 227 229 228 229 231 233 230 235 242 240 242 246 244 245 233 228 233 234 236 239 241 245
224 225 225 227 229 232 231 230 234 228 236 237 235 236 229 227 223 225 227 225 225 227 229 231 231 232 233 235 237 236 235 243 243 241 250 247 243 234 228 232 238 234 239 243 244
227 224 225 225 227 228 230 230 234 230 232 238 235 229 231 227 225 224 226 228 226 226 228 230 233 235 236 237 237 241 238 240 246 250 247 253 241 239 232 232 236 239 236 241 242
226 227 225 224 225 227 228 230 233 224 228 233 235 235 227 227 224 227 227 231 227 226 227 229 231 234 236 238 240 241 243 243 246 252 256 252 243 233 234 236 232 237 239 238 240
224 226 226 225 224 225 227 227 228 232 225 230 233 232 231 231 234 229 231 232 233 226 227 229 232 234 236 239 241 246 249 251 252 252 255 252 243 232 230 236 236 235 239 240 239
223 224 226 225 224 224 226 227 228 231 231 235 240 237 237 232 233 235 234 234 236 238 234 230 231 235 239 241 244 246 249 251 253 257 257 255 246 234 232 238 240 237 238 240 243
225 221 223 225 224 224 225 227 230 234 234 235 239 238 241 238 236 235 232 234 235 239 240 243 236 238 241 241 243 247 250 252 256 258 258 257 247 236 233 235 241 239 236 237 241
227 225 221 224 223 224 224 226 229 232 233 233 234 235 240 240 234 233 235 233 236 237 237 241 245 246 249 248 248 250 253 257 259 259 259 257 249 240 236 236 238 242 241 242 244
229 226 224 222 224 225 223 226 227 231 236 233 235 235 236 238 235 232 235 237 235 237 240 239 241 243 244 249 251 250 255 256 256 256 256 256 249 240 237 237 242 242 245 247 249
222 231 226 224 222 225 225 224 225 228 232 232 232 235 236 238 240 238 239 238 238 238 241 240 236 245 245 247 247 251 250 253 253 254 254 253 254 238 238 240 242 246 249 248 250
217 222 229 228 221 222 220 223 223 222 229 230 233 235 237 238 237 234 238 238 237 237 236 242 239 238 241 240 245 247 250 251 251 251 252 252 253 244 240 244 246 248 248 251 255
216 206 210 221 225 217 217 218 219 219 224 229 233 235 236 239 242 238 237 239 240 242 239 241 244 242 245 247 245 246 248 249 251 251 256 257 255 255 250 248 250 249 252 254 254
195 197 195 194 210 215 209 211 217 224 224 229 231 232 236 235 232 234 235 238 239 241 240 239 241 243 244 249 253 253 254 255 257 258 259 257 254 251 256 253 253 251 253 254 256
205 213 210 215 200 197 193 196 199 223 223 225 228 231 233 237 240 239 241 239 235 238 245 248 247 245 245 245 248 251 253 258 259 261 259 255 250 252 256 258 257 258 257 258 258
207 216 223 226 229 217 205 202 203 204 220 220 224 231 231 232 233 235 235 239 237 236 239 242 242 243 245 243 246 249 251 252 254 255 260 261 260 258 258 262 262 258 260 263 265
213 222 236 233 225 230 234 218 213 208 217 217 217 219 226 230 235 245 245 246 247 243 243 244 244 244 244 246 247 252 253 255 257 260 263 261 259 256 259 262 265 266 266 266 265
219 226 229 230 230 235 239 228 219 208 211 217 220 218 227 234 234 234 240 245 241 238 246 249 250 252 250 251 251 252 254 256 256 257 262 264 259 259 260 262 266 265 268 272 275
212 218 219 226 235 242 239 232 218 216 221 220 216 215 216 231 235 239 235 238 245 242 236 242 245 251 251 251 250 251 254 256 262 262 261 263 261 260 259 261 267 271 272 274 274
225 228 232 234 232 232 226 225 223 221 232 219 209 213 204 216 230 239 241 241 244 241 251 240 248 250 253 258 258 257 258 260 261 261 259 261 265 258 263 264 266 265 265 268 269
231 235 240 237 235 240 236 229 228 225 234 217 210 200 206 209 221 239 243 240 239 246 245 245 247 253 249 250 259 263 262 261 259 260 259 266 265 262 264 267 265 267 270 268 267
243 243 240 233 232 236 239 245 242 237 234 231 221 214 209 219 217 234 232 252 252 253 246 245 252 252 253 256 255 266 267 270 268 266 264 267 266 270 268 266 268 271 269 266 265
250 253 252 249 252 252 246 247 242 240 240 240 251 223 212 214 224 226 228 236 234 227 234 245 250 257 260 262 259 259 265 272 272 269 270 267 272 267 264 266 267 267 265 265 266